FW9881 Weather Reports


Display with metric or nautical units.
time (UTC)temp
F
wind
direction
speed
MPH
gust
MPH
rain 1hr
in
rain 24hr
in
rain mn
in
humidity
%
barometer
mb
20260831222525 74 225 0.0 0.0 0.00 0.00 0.00 60 1022.0
20260831221524 74 157 1.0 2.0 0.00 0.00 0.00 58 1021.8
20260831220526 75 247 1.0 4.0 0.00 0.00 0.00 56 1021.6
20260831215524 76 247 3.0 5.0 0.00 0.00 0.00 56 1021.5
20260831214523 75 225 2.0 4.0 0.00 0.00 0.00 55 1021.6
20260831213524 76 225 2.0 3.0 0.00 0.00 0.00 54 1021.5
20260831211522 76 202 2.0 4.0 0.00 0.00 0.00 54 1021.4
20260831210525 76 314 0.0 3.0 0.00 0.00 0.00 54 1021.6
20260831205522 75 225 1.0 3.0 0.00 0.00 0.00 52 1021.6
20260831204522 76 270 2.0 4.0 0.00 0.00 0.00 51 1021.8
20260831203621 76 216 1.0 5.0 0.00 0.00 0.00 52 1021.7
20260831201624 76 262 3.0 7.0 0.00 0.00 0.00 52 1021.7
20260831200624 76 233 4.0 6.0 0.00 0.00 0.00 51 1021.7
20260831195722 76 294 4.0 6.0 0.00 0.00 0.00 52 1021.7
20260831195639 76 313 1.0 2.0 0.00 0.00 0.00 51 1021.8
20260831194624 76 247 2.0 4.0 0.00 0.00 0.00 49 1021.8
20260831193622 77 292 4.0 9.0 0.00 0.00 0.00 47 1021.8
20260831193524 77 328 3.0 10.0 0.00 0.00 0.00 47 1021.9
20260831192523 78 266 3.0 5.0 0.00 0.00 0.00 44 1022.1
20260831191622 79 160 0.0 1.0 0.00 0.00 0.00 44 1022.1
20260831190722 77 217 3.0 5.0 0.00 0.00 0.00 43 1022.2
20260831185723 77 225 2.0 5.0 0.00 0.00 0.00 44 1022.2
20260831184723 78 217 3.0 5.0 0.00 0.00 0.00 42 1022.4
20260831184624 78 214 3.0 4.0 0.00 0.00 0.00 43 1022.4
20260831183640 77 314 0.0 2.0 0.00 0.00 0.00 45 1022.6
20260831181723 75 251 2.0 5.0 0.00 0.00 0.00 46 1022.9
20260831180725 75 297 1.0 2.0 0.00 0.00 0.00 44 1022.8
20260831175722 75 279 3.0 5.0 0.00 0.00 0.00 47 1022.8
20260831174724 76 288 0.0 2.0 0.00 0.00 0.00 48 1023.0
20260831173723 76 264 1.0 4.0 0.00 0.00 0.00 47 1022.8
20260831172740 76 24 0.0 3.0 0.00 0.00 0.00 49 1023.0
20260831171723 76 270 2.0 4.0 0.00 0.00 0.00 46 1022.9
20260831170723 75 247 0.0 0.0 0.00 0.00 0.00 47 1023.2
20260831162938 74 146 3.0 5.0 0.00 0.00 0.00 53 1023.5
20260831161923 74 163 3.0 5.0 0.00 0.00 0.00 53 1023.5
20260831160923 75 157 0.0 0.0 0.00 0.00 0.00 54 1023.5
20260831155924 73 225 0.0 0.0 0.00 0.00 0.00 54 1023.9
20260831155022 73 157 0.0 1.0 0.00 0.00 0.00 55 1023.8
20260831154024 73 157 0.0 0.0 0.00 0.00 0.00 55 1023.8
20260831153021 74 157 2.0 3.0 0.00 0.00 0.00 56 1023.8
20260831152923 73 157 0.0 0.0 0.00 0.00 0.00 55 1023.7
20260831151941 72 157 0.0 0.0 0.00 0.00 0.00 57 1023.7
20260831151024 72 247 1.0 3.0 0.00 0.00 0.00 57 1023.8
20260831145925 72 231 1.0 4.0 0.00 0.00 0.00 59 1023.8
20260831144023 70 157 0.0 0.0 0.00 0.00 0.00 61 1024.1
20260831143025 70 157 0.0 0.0 0.00 0.00 0.00 65 1024.3
20260831142024 69 247 2.0 3.0 0.00 0.00 0.00 67 1024.3
20260831141924 69 238 1.0 3.0 0.00 0.00 0.00 68 1024.3
20260831141824 69 190 2.0 3.0 0.00 0.00 0.00 69 1024.3
20260831140821 67 337 0.0 0.0 0.00 0.00 0.00 73 1024.4
20260831140738 67 320 0.0 0.0 0.00 0.00 0.00 74 1024.5
20260831135723 66 225 0.0 0.0 0.00 0.00 0.00 78 1024.4
20260831135624 65 225 0.0 1.0 0.00 0.00 0.00 79 1024.5
20260831134623 64 157 2.0 2.0 0.00 0.00 0.00 82 1024.6
20260831134522 63 157 3.0 3.0 0.00 0.00 0.00 83 1024.6
20260831132621 62 157 2.0 3.0 0.00 0.00 0.00 87 1024.5
20260831131622 62 157 0.0 1.0 0.00 0.00 0.00 88 1024.5
20260831130623 61 157 1.0 3.0 0.00 0.00 0.00 89 1024.5
20260831125722 61 157 2.0 3.0 0.00 0.00 0.00 89 1024.6
20260831124721 60 206 1.0 2.0 0.00 0.00 0.00 89 1024.6
20260831123722 59 247 0.0 0.0 0.00 0.00 0.00 87 1024.5
20260831121721 57 135 2.0 3.0 0.00 0.00 0.00 86 1024.5
20260831120722 56 135 0.0 1.0 0.00 0.00 0.00 85 1024.4
20260831120623 56 135 1.0 2.0 0.00 0.00 0.00 85 1024.4
20260831120524 56 135 2.0 2.0 0.00 0.00 0.00 85 1024.4
20260831115622 55 135 0.0 0.0 0.00 0.00 0.00 85 1024.2
20260831115524 55 135 0.0 0.0 0.00 0.00 0.00 85 1024.2
20260831114440 54 135 0.0 0.0 0.00 0.00 0.00 85 1024.2
20260831113522 54 135 1.0 2.0 0.00 0.00 0.00 85 1024.2
20260831112523 53 315 0.0 0.0 0.00 0.00 0.00 86 1024.0
20260831111621 53 315 0.0 0.0 0.00 0.00 0.00 86 1023.9
20260831111523 53 315 0.0 0.0 0.00 0.00 0.00 86 1023.9
20260831110622 53 315 0.0 0.0 0.00 0.00 0.00 87 1023.9
20260831105623 53 315 0.0 0.0 0.00 0.00 0.00 87 1023.9
20260831104622 53 315 0.0 0.0 0.00 0.00 0.00 86 1023.9
20260831103622 53 315 0.0 0.0 0.00 0.00 0.00 87 1023.7
20260831102622 53 315 0.0 0.0 0.00 0.00 0.00 87 1023.5
20260831101721 54 315 0.0 0.0 0.00 0.00 0.00 87 1023.5
20260831101640 54 315 0.0 0.0 0.00 0.00 0.00 87 1023.5
20260831100622 54 315 0.0 0.0 0.00 0.00 0.00 87 1023.7
20260831094721 55 315 0.0 0.0 0.00 0.00 0.00 87 1023.5
20260831092722 55 315 0.0 0.0 0.00 0.00 0.00 87 1023.4
20260831091724 55 315 0.0 0.0 0.00 0.00 0.00 86 1023.3
20260831090822 55 315 0.0 0.0 0.00 0.00 0.00 86 1023.3
20260831083922 56 315 0.0 0.0 0.00 0.00 0.00 87 1022.9
20260831082922 56 315 0.0 0.0 0.00 0.00 0.00 86 1023.1
20260831081921 57 315 0.0 0.0 0.00 0.00 0.00 86 1022.9
20260831075921 57 315 0.0 0.0 0.00 0.00 0.00 87 1022.7
20260831074923 57 315 0.0 0.0 0.00 0.00 0.00 88 1022.6
20260831073922 57 315 0.0 0.0 0.00 0.00 0.00 88 1022.8
20260831072823 57 315 0.0 0.0 0.00 0.00 0.00 87 1022.4
20260831070837 58 315 0.0 0.0 0.00 0.00 0.00 88 1022.5
20260831065921 58 315 0.0 0.0 0.00 0.00 0.00 88 1022.4
20260831063940 59 315 0.0 0.0 0.00 0.00 0.00 89 1022.4
20260831063024 59 315 0.0 0.0 0.00 0.00 0.00 89 1022.4
20260831062023 59 315 0.0 0.0 0.00 0.00 0.00 88 1022.4
20260831061023 59 315 0.0 0.0 0.00 0.00 0.00 89 1022.5
20260831055023 60 315 0.0 0.0 0.00 0.00 0.00 88 1022.5
20260831054040 61 315 0.0 0.0 0.00 0.00 0.00 87 1022.4
20260831052022 61 315 0.0 0.0 0.00 0.00 0.00 87 1022.3
20260831051939 61 315 0.0 0.0 0.00 0.00 0.00 86 1022.2
20260831051022 62 315 0.0 0.0 0.00 0.00 0.00 86 1021.9
20260831050021 63 315 0.0 0.0 0.00 0.00 0.00 85 1022.0
20260831045022 63 315 0.0 0.0 0.00 0.00 0.00 85 1021.9
20260831042138 63 337 0.0 0.0 0.00 0.00 0.00 83 1021.6
20260831040237 64 337 0.0 0.0 0.00 0.00 0.00 82 1021.7
20260831035321 65 337 0.0 0.0 0.00 0.00 0.00 80 1021.6
20260831034238 65 337 0.0 0.0 0.00 0.00 0.00 80 1021.6
20260831033323 66 353 1.0 2.0 0.00 0.00 0.00 80 1021.5
20260831030621 67 22 0.0 1.0 0.00 0.00 0.00 79 1021.7
20260831024622 67 337 1.0 3.0 0.00 0.00 0.00 78 1021.5
20260831022621 68 253 0.0 3.0 0.00 0.00 0.00 77 1021.2
20260831021621 68 272 0.0 2.0 0.00 0.00 0.00 77 1021.2
20260831021537 68 303 0.0 1.0 0.00 0.00 0.00 76 1021.2
20260831020624 68 329 2.0 3.0 0.00 0.00 0.00 75 1021.3
20260831015622 69 315 0.0 0.0 0.00 0.00 0.00 75 1021.2
20260831014622 69 294 2.0 7.0 0.00 0.00 0.00 76 1021.1
20260831013623 69 302 3.0 5.0 0.00 0.00 0.00 76 1021.1
20260831012722 69 335 0.0 2.0 0.00 0.00 0.00 76 1021.0
20260831011723 69 293 2.0 5.0 0.00 0.00 0.00 76 1020.9
20260831011622 69 287 4.0 6.0 0.00 0.00 0.00 76 1020.9
20260831010621 69 298 3.0 8.0 0.00 0.00 0.00 74 1020.8
20260831005623 69 247 2.0 4.0 0.00 0.00 0.00 75 1020.8
20260831005537 69 247 2.0 4.0 0.00 0.00 0.00 75 1020.7
20260831004540 70 276 3.0 7.0 0.00 0.00 0.00 74 1020.2
20260831003524 70 255 5.0 7.0 0.00 0.00 0.00 73 1020.2
20260831002523 70 270 5.0 11.0 0.00 0.00 0.00 73 1020.0
20260831002422 70 250 8.0 14.0 0.00 0.00 0.00 73 1019.9
20260831000521 70 235 4.0 7.0 0.00 0.00 0.00 71 1019.6
20260830235522 70 249 3.0 5.0 0.00 0.00 0.00 72 1019.6
20260830235422 70 271 4.0 10.0 0.00 0.00 0.00 71 1019.5
20260830233423 70 237 5.0 9.0 0.00 0.00 0.00 71 1019.5
20260830232420 70 267 2.0 8.0 0.00 0.00 0.00 70 1019.5
20260830231423 71 240 3.0 5.0 0.00 0.00 0.00 69 1019.5
20260830230438 71 270 1.0 5.0 0.00 0.00 0.00 69 1019.5
20260830230321 71 260 4.0 8.0 0.00 0.00 0.00 69 1019.5
20260830225323 71 247 0.0 2.0 0.00 0.00 0.00 68 1019.7
20260830224324 71 240 4.0 6.0 0.00 0.00 0.00 67 1019.5
20260830223323 72 233 2.0 9.0 0.00 0.00 0.00 66 1019.6